Change the Weather History Date:

Saturday, August 2, 2014

  Actual Average Record
Temperature  
Mean Temperature 68 °F -  
Max Temperature 82 °F 84 °F 98 °F (1988)
Min Temperature 55 °F 59 °F 1 °F (1999)
Cooling Degree Days 4    
Growing Degree Days 18 (Base 50)    
Moisture  
Dew Point 60 °F    
Average Humidity 71    
Maximum Humidity 94    
Minimum Humidity 42    
Precipitation  
Precipitation 0.00 in - - ()
Sea Level Pressure  
Sea Level Pressure 30.14 in    
Wind  
Wind Speed 1 mph (SW)    
Max Wind Speed 8 mph    
Max Gust Speed -    
Visibility 10 miles    
Events Rain    
Averages and records for this station are not official NWS values.
T = Trace of Precipitation, MM = Missing Value Source: NWS Daily Summary

Daily Weather History Graph

Daily Weather History Graph

Search for Another Location

Airport or City:

Trip Planner

Search our weather history database for the weather conditions in past years. The results will help you decide how hot, cold, wet, or windy it might be!

Date:

Astronomy

Aug. 02, 2014 Rise Set
Actual Time 6:09 AM CDT 8:42 PM CDT
Civil Twilight 5:37 AM CDT 9:15 PM CDT
Nautical Twilight 4:56 AM CDT 9:56 PM CDT
Astronomical Twilight 4:09 AM CDT 10:42 PM CDT
Moon 12:47 PM CDT (8/2) 11:46 PM CDT (8/2)
Length of Visible Light 15h 38m
Length of Day
14h 32m
Waxing Crescent, 37% of the Moon is Illuminated
Aug 2
Waxing Crescent
Aug 3
First Quarter
Aug 10
Full
Aug 17
Last Quarter
Aug 25
New

Hourly Weather History & Observations

Time (CDT) Temp. Heat Index Dew Point Humidity Pressure Visibility Wind Dir Wind Speed Gust Speed Precip Events Conditions
12:33 AM 62.6 °F - 57.2 °F 82% 30.13 in 10.0 mi Calm Calm - N/A   Clear
12:54 AM 62.6 °F - 57.2 °F 82% 30.14 in 10.0 mi Calm Calm - N/A   Clear
1:13 AM 60.8 °F - 57.2 °F 88% 30.13 in 10.0 mi Calm Calm - N/A   Clear
1:33 AM 62.6 °F - 57.2 °F 82% 30.13 in 10.0 mi Calm Calm - N/A   Clear
1:54 AM 60.8 °F - 57.2 °F 88% 30.13 in 10.0 mi Calm Calm - N/A   Clear
2:13 AM 62.6 °F - 57.2 °F 82% 30.13 in 10.0 mi Calm Calm - N/A   Clear
2:33 AM 60.8 °F - 55.4 °F 82% 30.14 in 10.0 mi Calm Calm - N/A   Clear
2:54 AM 60.8 °F - 57.2 °F 88% 30.14 in 10.0 mi Calm Calm - N/A   Clear
3:34 AM 60.8 °F - 57.2 °F 88% 30.14 in 7.0 mi Calm Calm - N/A   Clear
3:54 AM 59.0 °F - 55.4 °F 88% 30.14 in 7.0 mi Calm Calm - N/A   Clear
4:13 AM 59.0 °F - 55.4 °F 88% 30.14 in 7.0 mi Calm Calm - N/A   Clear
4:34 AM 59.0 °F - 55.4 °F 88% 30.14 in 10.0 mi Calm Calm - N/A   Clear
4:54 AM 59.0 °F - 55.4 °F 88% 30.13 in 10.0 mi Calm Calm - N/A   Clear
5:13 AM 59.0 °F - 55.4 °F 88% 30.14 in 10.0 mi Calm Calm - N/A   Clear
5:34 AM 57.2 °F - 55.4 °F 94% 30.13 in 7.0 mi Calm Calm - N/A   Clear
6:13 AM 55.4 °F - 53.6 °F 94% 30.14 in 7.0 mi Calm Calm - N/A   Clear
6:34 AM 57.2 °F - 53.6 °F 88% 30.15 in 7.0 mi Calm Calm - N/A   Clear
6:53 AM 59.0 °F - 55.4 °F 88% 30.15 in 7.0 mi Calm Calm - N/A   Clear
7:13 AM 60.8 °F - 55.4 °F 82% 30.15 in 7.0 mi Calm Calm - N/A   Clear
7:34 AM 62.6 °F - 59.0 °F 88% 30.15 in 7.0 mi Calm Calm - N/A   Clear
7:53 AM 64.4 °F - 60.8 °F 88% 30.15 in 7.0 mi Calm Calm - N/A   Clear
8:13 AM 66.2 °F - 60.8 °F 83% 30.16 in 10.0 mi Calm Calm - N/A   Clear
8:34 AM 69.8 °F - 60.8 °F 73% 30.16 in 10.0 mi Calm Calm - N/A   Clear
8:53 AM 71.6 °F - 60.8 °F 69% 30.16 in 10.0 mi WSW 3.5 mph - N/A   Clear
9:13 AM 73.4 °F - 62.6 °F 69% 30.16 in 10.0 mi SW 5.8 mph - N/A   Clear
9:34 AM 73.4 °F - 60.8 °F 65% 30.16 in 10.0 mi SW 5.8 mph - N/A   Clear
9:53 AM 75.2 °F - 62.6 °F 65% 30.16 in 10.0 mi SSW 5.8 mph - N/A   Clear
10:13 AM 75.2 °F - 60.8 °F 61% 30.16 in 10.0 mi SSW 3.5 mph - N/A   Clear
10:34 AM 77.0 °F - 60.8 °F 57% 30.16 in 10.0 mi SSW 6.9 mph - N/A   Clear
10:53 AM 78.8 °F - 59.0 °F 51% 30.17 in 10.0 mi WSW 8.1 mph - N/A   Clear
11:14 AM 80.6 °F 81.5 °F 60.8 °F 51% 30.17 in 10.0 mi SW 5.8 mph - N/A   Clear
11:33 AM 78.8 °F - 60.8 °F 54% 30.17 in 10.0 mi WSW 8.1 mph - N/A   Clear
11:53 AM 80.6 °F 81.1 °F 59.0 °F 48% 30.17 in 10.0 mi WSW 8.1 mph - N/A   Scattered Clouds
12:13 PM 80.6 °F 80.8 °F 57.2 °F 45% 30.16 in 10.0 mi SW 4.6 mph - N/A   Scattered Clouds
12:33 PM 80.6 °F 81.5 °F 60.8 °F 51% 30.16 in 10.0 mi WSW 4.6 mph - N/A   Scattered Clouds
12:54 PM 80.6 °F 81.1 °F 59.0 °F 48% 30.15 in 10.0 mi SW 5.8 mph - N/A   Scattered Clouds
1:13 PM 80.6 °F 81.1 °F 59.0 °F 48% 30.15 in 10.0 mi WSW 5.8 mph - N/A   Scattered Clouds
1:33 PM 78.8 °F - 59.0 °F 51% 30.15 in 10.0 mi Calm Calm - N/A   Scattered Clouds
1:54 PM 82.4 °F 82.0 °F 57.2 °F 42% 30.14 in 10.0 mi SSE 4.6 mph - N/A   Scattered Clouds
2:13 PM 80.6 °F 81.1 °F 59.0 °F 48% 30.14 in 10.0 mi SW 5.8 mph - N/A   Mostly Cloudy
2:54 PM 80.6 °F 81.1 °F 59.0 °F 48% 30.14 in 10.0 mi SSW 6.9 mph - N/A   Clear
3:13 PM 78.8 °F - 60.8 °F 54% 30.13 in 10.0 mi Calm Calm - N/A   Clear
3:33 PM 80.6 °F 81.5 °F 60.8 °F 51% 30.13 in 10.0 mi SW 4.6 mph - N/A   Clear
3:54 PM 80.6 °F 80.8 °F 57.2 °F 45% 30.12 in 10.0 mi South 3.5 mph - N/A   Clear
4:13 PM 78.8 °F - 60.8 °F 54% 30.12 in 10.0 mi Calm Calm - N/A   Clear
4:33 PM 78.8 °F - 60.8 °F 54% 30.12 in 10.0 mi SSW 3.5 mph - N/A   Clear
4:53 PM 77.0 °F - 62.6 °F 61% 30.13 in 10.0 mi SSW 4.6 mph - N/A Rain Light Rain
5:13 PM 73.4 °F - 64.4 °F 73% 30.13 in 10.0 mi SW 5.8 mph - N/A Rain Light Rain
5:34 PM 73.4 °F - 64.4 °F 73% 30.12 in 10.0 mi SSW 4.6 mph - N/A Rain Light Rain
5:53 PM 73.4 °F - 64.4 °F 73% 30.12 in 10.0 mi Calm Calm - N/A   Clear
6:34 PM 75.2 °F - 62.6 °F 65% 30.11 in 10.0 mi Calm Calm - N/A   Clear
6:53 PM 75.2 °F - 62.6 °F 65% 30.11 in 10.0 mi Calm Calm - N/A   Clear
7:13 PM 75.2 °F - 62.6 °F 65% 30.11 in 10.0 mi Calm Calm - N/A   Clear
7:34 PM 75.2 °F - 64.4 °F 69% 30.11 in 10.0 mi Calm Calm - N/A   Clear
7:53 PM 75.2 °F - 64.4 °F 69% 30.11 in 10.0 mi Calm Calm - N/A   Clear
8:13 PM 75.2 °F - 64.4 °F 69% 30.11 in 10.0 mi Calm Calm - N/A   Clear
8:34 PM 73.4 °F - 64.4 °F 73% 30.12 in 10.0 mi SSE 3.5 mph - N/A   Clear
8:53 PM 71.6 °F - 64.4 °F 78% 30.12 in 10.0 mi Calm Calm - N/A   Clear
9:13 PM 71.6 °F - 64.4 °F 78% 30.12 in 10.0 mi Calm Calm - N/A   Clear
9:34 PM 69.8 °F - 64.4 °F 83% 30.13 in 10.0 mi Calm Calm - N/A   Clear
9:53 PM 69.8 °F - 64.4 °F 83% 30.13 in 10.0 mi Calm Calm - N/A   Clear
10:13 PM 68.0 °F - 62.6 °F 83% 30.13 in 10.0 mi Calm Calm - N/A   Clear
10:34 PM 68.0 °F - 62.6 °F 83% 30.12 in 10.0 mi Calm Calm - N/A   Clear
10:53 PM 68.0 °F - 62.6 °F 83% 30.12 in 10.0 mi Calm Calm - N/A   Clear
11:33 PM 66.2 °F - 62.6 °F 88% 30.12 in 10.0 mi Calm Calm - N/A   Clear
11:54 PM 66.2 °F - 62.6 °F 88% 30.12 in 10.0 mi Calm Calm - N/A   Clear